TimeGMT,TemperatureF,Dew PointF,Humidity,Sea Level PressureIn,VisibilityMPH,Wind Direction,Wind SpeedMPH,Gust SpeedMPH,PrecipitationIn,Events,Conditions,WindDirDegrees,DateUTC
12:00 AM,43,40,86,29.76,14,SW,6.9,,,,Partly Cloudy,230,2014-02-19 00:00:00
12:50 AM,42.8,39.2,87,29.77,-9999.0,WSW,10.4,-,N/A,,Clear,240,2014-02-19 00:50:00
1:00 AM,43,39,81,29.77,16,WSW,10.4,,,,Mostly Cloudy,240,2014-02-19 01:00:00
1:50 AM,42.8,39.2,87,29.74,-9999.0,SW,10.4,-,N/A,,Clear,230,2014-02-19 01:50:00
2:00 AM,43,39,79,29.77,19,SW,10.4,,,,Mostly Cloudy,230,2014-02-19 02:00:00
2:50 AM,41.0,37.4,87,29.74,-9999.0,SW,5.8,-,N/A,,Clear,230,2014-02-19 02:50:00
3:00 AM,41,38,85,29.77,19,SW,5.8,,,,Mostly Cloudy,230,2014-02-19 03:00:00
3:50 AM,41.0,37.4,87,29.74,-9999.0,SW,6.9,-,N/A,,Clear,220,2014-02-19 03:50:00
4:00 AM,41,38,85,29.76,19,SW,6.9,,,,Mostly Cloudy,220,2014-02-19 04:00:00
4:50 AM,42.8,39.2,87,29.77,-9999.0,WSW,10.4,-,N/A,,Clear,250,2014-02-19 04:50:00
5:00 AM,42,39,83,29.77,19,WSW,10.4,,,,Mostly Cloudy,250,2014-02-19 05:00:00
5:50 AM,42.8,39.2,87,29.77,-9999.0,WSW,10.4,-,N/A,,Clear,240,2014-02-19 05:50:00
6:00 AM,42,39,83,29.78,19,WSW,10.4,,,,Mostly Cloudy,240,2014-02-19 06:00:00
6:50 AM,42.8,39.2,87,29.77,-9999.0,WSW,9.2,-,N/A,,Clear,240,2014-02-19 06:50:00
7:00 AM,42,39,84,29.79,19,WSW,9.2,,,,Mostly Cloudy,240,2014-02-19 07:00:00
7:50 AM,42.8,39.2,87,29.80,6.2,West,6.9,-,N/A,,Mostly Cloudy,260,2014-02-19 07:50:00
8:00 AM,42,40,88,29.81,19,West,6.9,,,,Mostly Cloudy,260,2014-02-19 08:00:00
8:50 AM,42.8,41.0,93,29.80,6.2,SSW,4.6,-,N/A,,Scattered Clouds,210,2014-02-19 08:50:00
9:00 AM,43,40,87,29.82,17,SSW,4.6,,,,Mostly Cloudy,210,2014-02-19 09:00:00
9:50 AM,46.4,41.0,81,29.83,6.2,SW,8.1,-,N/A,,Mostly Cloudy,230,2014-02-19 09:50:00
10:00 AM,46,41,78,29.83,19,SW,8.1,,,,Mostly Cloudy,230,2014-02-19 10:00:00
10:50 AM,48.2,42.8,82,29.83,6.2,WSW,10.4,-,N/A,,Scattered Clouds,240,2014-02-19 10:50:00
11:00 AM,47,42,77,29.84,19,WSW,10.4,,,,Mostly Cloudy,240,2014-02-19 11:00:00
11:50 AM,50.0,42.8,76,29.83,6.2,West,12.7,-,N/A,,Scattered Clouds,260,2014-02-19 11:50:00
12:00 PM,50,42,67,29.85,19,West,12.7,,,,Mostly Cloudy,260,2014-02-19 12:00:00
12:50 PM,51.8,41.0,67,29.83,6.2,West,13.8,-,N/A,,Scattered Clouds,260,2014-02-19 12:50:00
1:00 PM,51,42,61,29.84,19,West,13.8,,,,Mostly Cloudy,260,2014-02-19 13:00:00
1:50 PM,53.6,41.0,62,29.83,6.2,West,13.8,-,N/A,,Partly Cloudy,260,2014-02-19 13:50:00
2:00 PM,53,40,51,29.83,19,West,13.8,,,,Scattered Clouds,260,2014-02-19 14:00:00
2:50 PM,51.8,37.4,58,29.80,6.2,SW,10.4,-,N/A,,Partly Cloudy,230,2014-02-19 14:50:00
3:00 PM,52,37,46,29.82,19,SW,10.4,,,,Partly Cloudy,230,2014-02-19 15:00:00
3:50 PM,51.8,37.4,58,29.80,6.2,WSW,12.7,-,N/A,,Partly Cloudy,240,2014-02-19 15:50:00
4:00 PM,51,38,50,29.83,19,WSW,12.7,,,,Partly Cloudy,240,2014-02-19 16:00:00
4:50 PM,48.2,41.0,76,29.80,6.2,SW,8.1,-,N/A,,Scattered Clouds,220,2014-02-19 16:50:00
5:00 PM,48,41,70,29.82,19,SW,8.1,,,,Partly Cloudy,220,2014-02-19 17:00:00
5:50 PM,42.8,41.0,93,29.80,6.2,South,5.8,-,N/A,,Partly Cloudy,170,2014-02-19 17:50:00
6:00 PM,43,40,86,29.82,16,South,5.8,,,,Scattered Clouds,170,2014-02-19 18:00:00
6:50 PM,41.0,39.2,93,29.80,6.2,South,3.5,-,N/A,,Scattered Clouds,180,2014-02-19 18:50:00
7:00 PM,41,39,89,29.82,12,South,3.5,,,,Partly Cloudy,180,2014-02-19 19:00:00
7:50 PM,44.6,41.0,87,29.80,6.2,South,8.1,-,N/A,,Scattered Clouds,180,2014-02-19 19:50:00
8:00 PM,44,42,89,29.81,12,South,8.1,,,,Partly Cloudy,180,2014-02-19 20:00:00
8:50 PM,44.6,42.8,93,29.77,6.2,South,9.2,-,N/A,,Mostly Cloudy,180,2014-02-19 20:50:00
9:00 PM,45,43,89,29.80,12,South,9.2,,,,Mostly Cloudy,180,2014-02-19 21:00:00
9:50 PM,44.6,42.8,93,29.77,6.2,South,10.4,-,N/A,,Scattered Clouds,170,2014-02-19 21:50:00
10:00 PM,44,42,90,29.78,12,South,10.4,,,,Partly Cloudy,170,2014-02-19 22:00:00
10:50 PM,44.6,42.8,93,29.74,6.2,South,10.4,-,N/A,,Scattered Clouds,170,2014-02-19 22:50:00
11:00 PM,45,43,89,29.75,11,South,10.4,,,,Overcast,170,2014-02-19 23:00:00
11:50 PM,46.4,44.6,93,29.71,6.2,SSE,12.7,-,N/A,,Mostly Cloudy,160,2014-02-19 23:50:00